This is the latest recevied weather packets stored in our database for station/object K6TTR. If no packets are shown the sender has not sent any weather packets the latest 10 day(s).
| Time | Temp. | Humidity | Pressure | Rain* | Wind** | Luminosity | Snow |
|---|---|---|---|---|---|---|---|
| 1788585439 | 5.56° C | 81% | 1017.2 hPa | 0 mm | - | 0 W/m² | - |
| 1788585140 | 5.56° C | 81% | 1017.2 hPa | 0 mm | - | 0 W/m² | - |
| 1788584837 | 6.11° C | 81% | 1017.2 hPa | 0 mm | - | 0 W/m² | - |
| 1788584537 | 6.11° C | 81% | 1017.2 hPa | 0 mm | - | 0 W/m² | - |
| 1788584235 | 6.11° C | 80% | 1017.2 hPa | 0 mm | - | 0 W/m² | - |
| 1788583937 | 6.11° C | 80% | 1017.3 hPa | 0 mm | - | 0 W/m² | - |
| 1788583636 | 6.11° C | 79% | 1017.3 hPa | 0 mm | - | 0 W/m² | - |
| 1788583339 | 6.67° C | 79% | 1017.2 hPa | 0 mm | - | 0 W/m² | - |
| 1788583038 | 6.67° C | 78% | 1017.2 hPa | 0 mm | - | 0 W/m² | - |
| 1788582738 | 6.67° C | 78% | 1017.1 hPa | 0 mm | - | 0 W/m² | - |
| 1788582436 | 7.22° C | 78% | 1017.1 hPa | 0 mm | - | 0 W/m² | - |
| 1788582136 | 7.22° C | 77% | 1017.1 hPa | 0 mm | - | 0 W/m² | - |
| 1788581851 | 7.22° C | 77% | 1017.1 hPa | 0 mm | - | 0 W/m² | - |
| 1788581552 | 7.22° C | 76% | 1017 hPa | 0 mm | - | 0 W/m² | - |
| 1788581232 | 7.78° C | 76% | 1016.8 hPa | 0 mm | - | 0 W/m² | - |
| 1788580936 | 7.78° C | 75% | 1016.8 hPa | 0 mm | - | 0 W/m² | - |
| 1788580635 | 7.78° C | 75% | 1016.8 hPa | 0 mm | - | 0 W/m² | - |
| 1788580338 | 7.78° C | 74% | 1016.8 hPa | 0 mm | - | 0 W/m² | - |
| 1788580037 | 8.33° C | 74% | 1016.7 hPa | 0 mm | - | 0 W/m² | - |
| 1788579738 | 8.33° C | 73% | 1016.6 hPa | 0 mm | - | 0 W/m² | - |
| 1788579450 | 8.33° C | 73% | 1016.6 hPa | 0 mm | - | 0 W/m² | - |
| 1788579151 | 8.89° C | 70% | 1016.4 hPa | 0 mm | - | 0 W/m² | - |
| 1788578849 | 8.89° C | 69% | 1016.4 hPa | 0 mm | - | 0 W/m² | - |
| 1788578534 | 9.44° C | 68% | 1016.4 hPa | 0 mm | - | 0 W/m² | - |
| 1788578251 | 9.44° C | 67% | 1016.2 hPa | 0 mm | - | 0 W/m² | - |
* Rain latest hour (hover to see other rain measurements)
** Current wind speed in m/s (hover to see current wind gust speed)